Hurghada, Egypt

1:39 AM EET on July 24, 2017 (GMT +0200)
Hurghada

Weather History for HEGN - February, 2013

Change the Weather History Date:

Friday, February 15, 2013

  Actual Average Record
Temperature  
Mean Temperature 66 °F -  
Max Temperature 76 °F 72 °F 84 °F (2016)
Min Temperature 57 °F 56 °F 46 °F (2004)
Cooling Degree Days 2    
Growing Degree Days 16 (Base 50)    
Moisture  
Dew Point 35 °F    
Average Humidity 30    
Maximum Humidity 45    
Minimum Humidity 13    
Precipitation  
Precipitation 0.00 in - - ()
Sea Level Pressure  
Sea Level Pressure 29.99 in    
Wind  
Wind Speed 11 mph ()    
Max Wind Speed 28 mph    
Max Gust Speed -    
Visibility 3.9 miles    
Events      
Averages and records for this station are not official NWS values.
T = Trace of Precipitation, MM = Missing Value Source: Averaged Metar Reports

Daily Weather History Graph

Daily Weather History Graph

Search for Another Location

Airport or City:

Trip Planner

Search our weather history database for the weather conditions in past years. The results will help you decide how hot, cold, wet, or windy it might be!

Date:

Astronomy

Feb. 15, 2013 Rise Set
Actual Time 6:21 AM EET 5:37 PM EET
Civil Twilight 5:58 AM EET 6:00 PM EET
Nautical Twilight 5:30 AM EET 6:28 PM EET
Astronomical Twilight 5:03 AM EET 6:55 PM EET
Moon 9:19 AM EET (2/15) 10:41 PM EET (2/15)
Length of Visible Light 12h 02m
Length of Day
11h 15m
Waxing Crescent, 27% of the Moon is Illuminated
Feb 15
Waxing Crescent
Feb 17
First Quarter
Feb 25
Full
Mar 4
Last Quarter
Mar 11
New

Hourly Weather History & Observations

Time (EET) Temp. Dew Point Humidity Pressure Visibility Wind Dir Wind Speed Gust Speed Precip Events Conditions
12:00 AM 62.6 °F 41.0 °F 45% 29.92 in - Calm Calm - N/A   Clear
1:00 AM 64.4 °F 41.0 °F 42% 29.92 in - Calm Calm - N/A   Clear
2:00 AM 63 °F 38 °F 28% 29.91 in 6 mi WNW 8.1 mph - -  
2:00 AM 62.6 °F 37.4 °F 39% 29.89 in - NNE 8.1 mph - N/A   Clear
3:00 AM 62.6 °F 37.4 °F 39% 29.89 in - NNW 5.8 mph - N/A   Clear
4:00 AM 60.8 °F 35.6 °F 39% 29.92 in - NW 10.4 mph - N/A   Clear
5:00 AM 59.0 °F 35.6 °F 42% 29.92 in - NW 9.2 mph - N/A   Clear
6:00 AM 57.2 °F 28.4 °F 33% 29.95 in - WNW 6.9 mph - N/A   Clear
7:00 AM 59.0 °F 26.6 °F 29% 29.95 in - NW 9.2 mph - N/A   Clear
8:00 AM 64 °F 25 °F 13% 29.99 in 6 mi NW 13.8 mph - -   Partly Cloudy
8:00 AM 64.4 °F 24.8 °F 22% 29.98 in - NW 13.8 mph - N/A   Clear
9:00 AM 71.6 °F 35.6 °F 27% 29.98 in - North 13.8 mph - N/A   Clear
10:00 AM 73.4 °F 35.6 °F 25% 30.01 in 2.5 mi North 25.3 mph - N/A   Sand
11:00 AM 75.2 °F 35.6 °F 24% 30.01 in 2.5 mi North 25.3 mph - N/A   Sand
12:00 PM 75.2 °F 32.0 °F 21% 30.01 in 2.5 mi North 27.6 mph - N/A   Sand
1:00 PM 75.2 °F 44.6 °F 34% 29.98 in 2.5 mi North 25.3 mph - N/A   Sand
2:00 PM 75.2 °F 42.8 °F 31% 29.98 in 2.5 mi North 25.3 mph - N/A   Sand
3:00 PM 73.4 °F 42.8 °F 33% 29.98 in 3.7 mi North 27.6 mph - N/A   Unknown
4:00 PM 71.6 °F 37.4 °F 29% 29.98 in 5.0 mi North 27.6 mph - N/A   Unknown
5:00 PM 69.8 °F 35.6 °F 28% 30.01 in - North 23.0 mph - N/A   Clear
6:00 PM 68.0 °F 30.2 °F 24% 30.04 in - North 18.4 mph - N/A   Clear
7:00 PM 68.0 °F 35.6 °F 30% 30.04 in - NNW 13.8 mph - N/A   Clear
8:00 PM 67 °F 34 °F 18% 30.07 in 6 mi NNW 16.1 mph - -   Clear
8:00 PM 66.2 °F 33.8 °F 30% 30.06 in - NNW 16.1 mph - N/A   Clear
9:00 PM 66.2 °F 28.4 °F 24% 30.09 in - NW 17.3 mph - N/A   Clear
10:00 PM 62.6 °F 30.2 °F 30% 30.09 in - NW 15.0 mph - N/A   Clear
11:00 PM 62.6 °F 28.4 °F 27% 30.09 in - WNW 10.4 mph - N/A   Clear